SHIYAN-1 (SY-1)

Last updated on Sat Oct 25 2025 00:02:31 GMT+0000 (Coordinated Universal Time)

1 28220U 04012A 25297.71978263 .00016233 00000+0 62638-3 0 9991 2 28220 97.9003 356.4186 0007783 123.3886 236.8097 15.26356623175088
UTC large
Height (km)
Speed (km/s)
/
Latitude / Longitude
Inclination (degrees)
Orbital Period (minutes)
Azimuth
Elevation
Range (km)
Doppler Factor

Next 0 passes for location: London (51.5072 / 0.1276)

Sorry there are no passes over London.